Location: Remedello Sotto
(45.2500°N, 10.3667°E)
Time: 21:31:16
(UTC+00:00)

Cosmos 2219 Rocket - Pass Details

Date: 03 February 2023
Orbit: 826 x 848 km, 71.0° (Epoch: 22 March)

Event Time Altitude Azimuth Distance (km) Brightness Sun altitude
Rises 18:03:29 0° 182° (S) 3,349 5.4 -17.0°
Reaches altitude 10° 18:06:01 10° 175° (S) 2,421 4.6 -17.4°
Maximum altitude 18:11:09 40° 107° (ESE) 1,199 2.5 -18.3°
Enters shadow 18:12:55 32° 67° (ENE) 1,404 2.8 -18.7°
